Find Starlink 33611

NORAD ID: 63279 Int'l Des: 2025-053 Owner: SPXS Country: US Constellation: starlink operational
LEOCIRCULAR

当前视图

正在加载3D地球...

About Starlink 33611

Starlink 33611 (NORAD 63279) is a starlink constellation satellite (v2 mini) launched Mar 15, 2025 by SPXS of US. It operates in LEO, CIRCULAR orbit with a mass of 575.00 kg.

即将过境

Passes for default location (London). Set your location on the main map for personalized predictions.

高度历史

Loading altitude history...

两行轨道根数

1 63279U 25053Q 26235.73974562 .00016272 00000-0 59925-3 0 9994
2 63279 43.0018 14.7280 0001559 269.0118 91.0556 15.27596041 81896
Epoch: Aug 23, 2026 • Age: 15 hours

当前状态

高度 487.4 km
远地点 / 近地点 N/A
速度 7.62 km/s
星下点 -21.77°S, 111.68°E
发射日期 Mar 15, 2025
运行时间 1.4 years
类型 internet

技术详情

分类 Payload
质量 575.00 kg
干质量 530.00 kg
总质量 575.00 kg
长度 0.30 m
直径 4.10 m
跨度 29.00 m
形状 Box + pan
制造商 SPXS
平台类型 Starlink V2MO
阶段状态 In Orbit
所有者/国家 SPXS/US

Most Searched